Location: Castillon
(43.0896°N, 0.2156°E)
Time: 17:18:37
(UTC+00:00)

Cosmos 1867 - Pass Details

Date: 16 June 2021
Orbit: 773 x 803 km, 65.0° (Epoch: 03 August)

Event Time Altitude Azimuth Distance (km) Brightness Sun altitude
Rises 23:24:04 0° 324° (NW) 3,320 7.8 -23.0°
Reaches altitude 10° 23:26:30 10° 322° (NW) 2,386 6.9 -23.1°
Maximum altitude 23:31:58 70° 240° (WSW) 854 3.5 -23.2°
Enters shadow 23:32:53 58° 187° (S) 933 3.5 -23.2°
